Regional Weather Roundup
Issued by NWS

Home | Current Version | Previous Version | Text Only | Print | Product List | Glossary Off
Versions: 1 2 3 4 5 6 7 8 9 10 11 12 13 14 15 16 17 18 19 20 21 22 23 24 25 26 27 28 29 30 31 32 33 34 35 36 37 38 39 40 41 42 43 44 45 46 47 48 49 50

000
ASUS43 KOAX 200802
RWRNE

WEATHER ROUNDUP FOR NEBRASKA
NATIONAL WEATHER SERVICE OMAHA NE
300 AM CDT SAT SEP 20 2014

NOTES: SATELLITE DATA IS BEING USED TO AUGMENT CLOUD COVER ABOVE
       12000 FEET.
       "FAIR" INDICATES FEW OR NO CLOUDS BELOW 12,000 FEET WITH NO
       SIGNIFICANT WEATHER AND/OR OBSTRUCTIONS TO VISIBILITY.

  * THESE STATIONS DO NOT REPORT WEATHER SUCH AS RAIN...SNOW OR FOG.

NEZ001>004-019>022-054>056-200900-
NEBRASKA PANHANDLE

CITY           SKY/WX    TMP DP  RH WIND       PRES   REMARKS
SCOTTSBLUFF    CLEAR     62  50  64 N7        30.04R
ALLIANCE       CLEAR     58  51  78 N12       30.03R
CHADRON        PTCLDY    52  49  89 W6        30.03R
KIMBALL        PTCLDY    55  50  82 CALM      30.05R
SIDNEY         CLEAR     59  53  80 N8        30.02R
$$

NEZ057>060-069>072-079>082-200900-
SOUTHWEST NEBRASKA

CITY           SKY/WX    TMP DP  RH WIND       PRES   REMARKS
NORTH PLATTE   MOCLDY    67  60  78 CALM      29.88S
IMPERIAL       CLOUDY    67  58  72 W7        29.91R
LEXINGTON      CLOUDY    73  61  67 SW8       29.88R
MCCOOK         PTCLDY    68  61  78 S6        29.89F
OGALLALA       PTCLDY    63  59  85 CALM      29.93R
$$

NEZ005>010-023>029-035>040-094-200900-
NORTH CENTRAL NEBRASKA

CITY           SKY/WX    TMP DP  RH WIND       PRES   REMARKS
VALENTINE      PTCLDY    59  54  83 NW8       29.95R
AINSWORTH      PTCLDY    60  55  83 NW6       29.94R
BROKEN BOW     PTCLDY    66  60  81 N6        29.88S
O`NEILL        PTCLDY    64  59  83 CALM      29.88R
ORD            MOCLDY    68  64  87 CALM      29.85S
THEDFORD       PTCLDY    66  56  70 CALM      29.93S
$$

NEZ041-046>049-061>064-073>077-083>087-200900-
SOUTH CENTRAL NEBRASKA

CITY           SKY/WX    TMP DP  RH WIND       PRES   REMARKS
GRAND ISLAND   MOCLDY    75  61  61 SW16      29.86S
AURORA         MOCLDY    71  60  67 SW8       29.86S
HASTINGS       PTCLDY    71  58  63 S10       29.87F
HEBRON         CLEAR     71  61  71 SW12      29.88F
HOLDREGE       PTCLDY    69  59  71 SW8       29.89F
KEARNEY *      MOCLDY    72  59  64 S15       29.87F
YORK           PTCLDY    70  63  78 SW9       29.85F
$$

NEZ011>018-030>034-042>045-200900-
NORTHEAST NEBRASKA

CITY           SKY/WX    TMP DP  RH WIND       PRES   REMARKS
NORFOLK        CLOUDY    70  65  84 W7        29.83R
ALBION         CLOUDY    69  64  83 CALM      29.85S
BLAIR          PTCLDY    73  67  84 N3        29.85R
COLUMBUS *     MOCLDY    70  63  78 CALM      29.85F
FREMONT        MOCLDY    72  65  80 CALM      29.85S
TEKAMAH        CLOUDY    70  67  90 E7        29.84S THUNDER
WAYNE          PTCLDY    65  64  94 W5        29.83R
$$

NEZ050>053-065>068-078-088>093-200900-
SOUTHEAST NEBRASKA

CITY           SKY/WX    TMP DP  RH WIND       PRES   REMARKS
LINCOLN        PTCLDY    74  64  71 SW12      29.85S
OMAHA EPPLEY   TSTM      73  67  81 N6        29.85R
BEATRICE       CLEAR     72  66  82 SW14G20   29.88S
FALLS CITY     CLEAR     70  67  90 S13       29.88R
NEBRASKA CITY    N/A     69  68  96 SW12      29.86F
PLATTSMOUTH    CLEAR     71  66  84 S14       29.84S
$$

NEZ044-045-051>053-067-200900-
OMAHA AREA

CITY           SKY/WX    TMP DP  RH WIND       PRES   REMARKS
OMAHA EPPLEY   TSTM      73  67  81 N6        29.85R
BLAIR          PTCLDY    73  67  84 N3        29.85R
FREMONT        MOCLDY    72  65  80 CALM      29.85S
MILLARD        MOCLDY    74  67  78 NW6       29.84R
OFFUTT AFB     PTCLDY    71  71  99 S6        29.83S
PLATTSMOUTH    CLEAR     71  66  84 S14       29.84S
WAHOO          PTSUNNY   74  63  70 NW3       29.84R
$$



USA.gov is the U.S. government's official web portal to all federal, state and local government web resources and services.